COSMOS 1275 DEB

Satellite information

Favourite Embed

Satellite Type and Status

DEBRISIN ORBIT

Key statistics

Satellite COSMOS 1275 DEB at a glance.

Uptime

16105

Days in orbit

Revolutions

≈ 14.1

Per day

Orbit

LEO

Low Earth Orbit

Inclination

82.8

Latest

Satellite identification and parameters

Extended collection of information and parameters for COSMOS 1275 DEB.

Object identification

Identified? True

Debris? True

Object name: COSMOS 1275 DEB

International designator: 1981-053TC

Object number (NORAD): 42188

Object ID (CCSDS): 42188

Country: COMMONWEALTH OF INDEPENDENT STATES (CIS)

Current information (Y/N): Y

RCS size: SMALL

Orbital parameters

Period: 101.824 minutes

Inclination: 82.8494 deg

SMA: 7223.151 km

Apoapsis: 883.667 km

Periapsis: 806.365 km

RAAN: 43.1376 deg

Eccentricy: 0.005351

Argument of periapsis: 59.1131 deg

Mean anomaly: 301.5293 deg

Mean motion: 14.14206153 rev/day

Mean motion (dot): 0.00001946 rev/day2

B* drag term: 0.00099849 1/REarth

Two-line elements (TLE)

Creation date: July 8, 2025, 2:27 a.m.

Reference frame: TEME

Reference center: EARTH

Epoch: July 7, 2025, 8:30 p.m. UTC

TLE line 0: 0 COSMOS 1275 DEB

TLE line 1: 1 42188U 81053TC 25188.85425271 .00001946 00000-0 99849-3 0 9990

TLE line 2: 2 42188 82.8494 43.1376 0053510 59.1131 301.5293 14.14206153595861

Live tracking on map

Real-time ground track for satellite COSMOS 1275 DEB.

In-orbit conjunctions

A list of the most updated potential collisions computed for object COSMOS 1275 DEB.

Target Orbit TCA Probability of collision Miss distance Type
CZ-6A DEB LEO 2025-03-16 19:16:50 0.001748389 20.0 (m) DEBRIS
DMSP 5D-2 F13 DEB SSO 2024-12-13 12:19:53 0.0001964344 138.0 (m) DEBRIS
FENGYUN 1C DEB SSO 2024-11-09 09:17:48 0.0001422999 517.0 (m) DEBRIS

Associated space launch

Navigation satellite providing location information for the Tsiklon-B navigation system

COSMOS 1275 DEB was lifted into orbit during the mission ‘Kosmos-3M | Parus 27’, on board a Kosmos-3M space rocket.

The launch took place on June 4, 1981, 3:41 p.m. from 132/2.

For more information about the launch, click the button.

Launch to space Kosmos-3M | Parus 27
Kosmos-3M | Parus 27

Agency: N/A

Status: Launch Successful

Launch date: June 4, 1981, 3:41 p.m. UTC

Rocket: Kosmos-3M

Launch pad: 132/2

Location: Plesetsk Cosmodrome, Russian Federation

...

Latest news about this satellite

There are no fresh news available about this satellite. Check back as we update our databases every day.


Newsletter sign-up

Weekly statistics, charts and insights to help you stay on top of the space industry.